Total_Precipitation_Accumulation
0.61 0.51 0.56 0.54 0.42 0.50 0.72 0.59 0.48 0.34 0.32 0.36 0.34 0.37 0.37 0.32 0.27 0.21 0.19 0.19 0.17 0.17 0.18 0.20 0.22 0.26 0.30 0.35 0.39 0.43 0.44 0.43 0.45 0.47 0.49 0.51 0.49 0.48 0.48 0.51 0.53 0.53 0.53 0.53
0.63 0.37 0.38 0.40 0.32 0.37 0.45 0.37 0.32 0.24 0.28 0.26 0.26 0.30 0.32 0.26 0.19 0.15 0.13 0.12 0.11 0.10 0.11 0.14 0.15 0.17 0.22 0.27 0.32 0.35 0.38 0.40 0.41 0.41 0.41 0.42 0.42 0.41 0.39 0.40 0.43 0.46 0.51 0.55
0.66 0.35 0.36 0.38 0.28 0.31 0.35 0.28 0.24 0.26 0.23 0.17 0.20 0.27 0.31 0.25 0.16 0.11 0.10 0.09 0.09 0.08 0.08 0.08 0.10 0.16 0.21 0.25 0.26 0.28 0.30 0.30 0.30 0.32 0.34 0.35 0.38 0.42 0.46 0.51 0.52 0.56 0.60 0.65
0.60 0.49 0.53 0.36 0.22 0.21 0.23 0.20 0.16 0.15 0.11 0.11 0.16 0.18 0.19 0.20 0.17 0.11 0.06 0.05 0.05 0.05 0.05 0.06 0.08 0.13 0.20 0.28 0.30 0.33 0.36 0.34 0.31 0.32 0.38 0.43 0.49 0.56 0.65 0.72 0.76 0.79 0.83 0.84
0.44 0.36 0.25 0.15 0.12 0.14 0.17 0.16 0.09 0.08 0.06 0.05 0.07 0.14 0.16 0.14 0.15 0.13 0.07 0.05 0.04 0.05 0.06 0.07 0.09 0.11 0.16 0.25 0.32 0.36 0.41 0.45 0.45 0.47 0.55 0.61 0.70 0.79 0.81 0.87 0.87 0.84 0.81 0.79
0.31 0.23 0.11 0.07 0.04 0.04 0.09 0.13 0.05 0.04 0.04 0.03 0.03 0.08 0.12 0.15 0.18 0.19 0.15 0.09 0.06 0.07 0.08 0.11 0.14 0.17 0.23 0.31 0.40 0.46 0.51 0.57 0.59 0.61 0.64 0.66 0.68 0.70 0.70 0.69 0.66 0.60 0.56 0.52
0.23 0.18 0.03 0.02 0.01 0.01 0.06 0.08 0.03 0.04 0.04 0.03 0.04 0.05 0.06 0.09 0.15 0.18 0.20 0.19 0.17 0.17 0.19 0.22 0.26 0.32 0.40 0.46 0.55 0.61 0.61 0.64 0.65 0.63 0.62 0.58 0.51 0.45 0.43 0.40 0.36 0.31 0.28 0.26
0.09 0.13 0.05 0.02 0.01 0.02 0.02 0.01 0.01 0.02 0.03 0.04 0.04 0.03 0.03 0.05 0.09 0.11 0.15 0.20 0.24 0.27 0.28 0.29 0.35 0.43 0.50 0.55 0.57 0.53 0.47 0.43 0.41 0.35 0.32 0.30 0.26 0.24 0.23 0.22 0.21 0.19 0.16 0.14
0.04 0.05 0.03 0.02 0.02 0.01 0.02 0.02 0.02 0.02 0.03 0.03 0.04 0.04 0.04 0.04 0.04 0.05 0.06 0.08 0.12 0.17 0.20 0.21 0.22 0.25 0.28 0.26 0.24 0.21 0.17 0.15 0.15 0.14 0.14 0.14 0.14 0.13 0.13 0.14 0.14 0.13 0.13 0.12
0.04 0.03 0.03 0.02 0.01 0.02 0.02 0.02 0.03 0.02 0.02 0.02 0.03 0.04 0.04 0.04 0.05 0.05 0.06 0.06 0.05 0.06 0.07 0.07 0.06 0.06 0.06 0.06 0.06 0.06 0.06 0.07 0.07 0.08 0.09 0.09 0.09 0.09 0.10 0.11 0.12 0.13 0.14 0.13
0.06 0.05 0.03 0.03 0.02 0.02 0.02 0.02 0.03 0.03 0.03 0.03 0.03 0.03 0.04 0.04 0.04 0.05 0.05 0.06 0.06 0.07 0.07 0.07 0.07 0.06 0.06 0.06 0.06 0.06 0.07 0.07 0.09 0.10 0.11 0.12 0.12 0.12 0.14 0.14 0.16 0.18 0.17 0.18
0.08 0.04 0.03 0.03 0.02 0.02 0.02 0.02 0.02 0.02 0.03 0.03 0.03 0.04 0.04 0.04 0.04 0.04 0.04 0.05 0.06 0.07 0.09 0.09 0.08 0.08 0.08 0.08 0.08 0.08 0.09 0.09 0.10 0.11 0.12 0.13 0.14 0.14 0.16 0.17 0.18 0.20 0.19 0.19
0.03 0.01 0.01 0.01 0.01 0.01 0.01 0.01 0.02 0.02 0.02 0.03 0.03 0.03 0.03 0.03 0.04 0.04 0.04 0.04 0.05 0.06 0.07 0.08 0.08 0.08 0.09 0.09 0.10 0.10 0.11 0.13 0.14 0.15 0.16 0.16 0.17 0.17 0.18 0.20 0.22 0.23 0.22 0.22
0.01 0.01 0.01 0.01 0.01 0.01 0.01 0.01 0.02 0.03 0.03 0.03 0.02 0.02 0.02 0.03 0.03 0.03 0.04 0.05 0.05 0.06 0.06 0.06 0.06 0.07 0.08 0.09 0.10 0.11 0.12 0.14 0.16 0.15 0.17 0.18 0.19 0.19 0.19 0.20 0.20 0.19 0.21 0.26
0.02 0.02 0.02 0.02 0.02 0.01 0.01 0.01 0.01 0.01 0.01 0.01 0.02 0.02 0.03 0.03 0.03 0.03 0.03 0.04 0.05 0.05 0.05 0.05 0.05 0.06 0.07 0.08 0.09 0.10 0.12 0.14 0.15 0.16 0.17 0.19 0.20 0.21 0.21 0.20 0.20 0.20 0.21 0.25
0.03 0.03 0.03 0.03 0.03 0.02 0.02 0.02 0.02 0.02 0.02 0.02 0.02 0.03 0.04 0.04 0.04 0.04 0.04 0.04 0.04 0.04 0.05 0.06 0.06 0.07 0.07 0.07 0.09 0.10 0.12 0.17 0.19 0.19 0.19 0.19 0.20 0.21 0.21 0.20 0.20 0.19 0.20 0.22
0.08 0.06 0.05 0.05 0.05 0.05 0.05 0.05 0.05 0.05 0.04 0.04 0.03 0.03 0.03 0.03 0.03 0.03 0.04 0.03 0.03 0.04 0.04 0.05 0.06 0.07 0.07 0.08 0.10 0.11 0.13 0.17 0.22 0.20 0.17 0.18 0.20 0.21 0.22 0.23 0.22 0.20 0.18 0.22
0.09 0.09 0.08 0.07 0.07 0.07 0.07 0.07 0.06 0.05 0.05 0.04 0.04 0.03 0.03 0.03 0.03 0.03 0.03 0.03 0.03 0.04 0.05 0.05 0.06 0.07 0.07 0.09 0.10 0.12 0.13 0.15 0.17 0.17 0.18 0.20 0.23 0.24 0.24 0.24 0.22 0.21 0.19 0.22
0.09 0.10 0.10 0.09 0.08 0.09 0.09 0.09 0.08 0.06 0.05 0.05 0.05 0.05 0.05 0.04 0.04 0.04 0.05 0.05 0.05 0.06 0.06 0.06 0.08 0.09 0.09 0.10 0.13 0.13 0.14 0.16 0.17 0.18 0.19 0.22 0.25 0.22 0.22 0.23 0.23 0.22 0.22 0.23
0.10 0.11 0.12 0.12 0.10 0.09 0.10 0.10 0.09 0.08 0.07 0.07 0.07 0.07 0.06 0.06 0.06 0.06 0.06 0.06 0.07 0.07 0.07 0.07 0.08 0.09 0.09 0.11 0.14 0.13 0.14 0.16 0.17 0.18 0.20 0.22 0.23 0.22 0.22 0.22 0.23 0.23 0.24 0.24
0.13 0.13 0.13 0.14 0.14 0.13 0.12 0.12 0.12 0.11 0.10 0.09 0.10 0.10 0.09 0.09 0.08 0.07 0.08 0.08 0.08 0.08 0.08 0.09 0.08 0.08 0.10 0.13 0.15 0.14 0.14 0.16 0.19 0.21 0.23 0.24 0.25 0.24 0.24 0.23 0.24 0.24 0.24 0.24
0.11 0.12 0.13 0.14 0.13 0.13 0.13 0.13 0.13 0.13 0.13 0.13 0.13 0.12 0.11 0.11 0.10 0.09 0.09 0.09 0.09 0.11 0.11 0.09 0.09 0.10 0.14 0.17 0.16 0.16 0.17 0.19 0.21 0.23 0.24 0.25 0.25 0.24 0.23 0.23 0.24 0.23 0.23 0.24
0.09 0.10 0.12 0.13 0.13 0.13 0.13 0.15 0.15 0.15 0.15 0.15 0.16 0.16 0.15 0.13 0.12 0.12 0.13 0.12 0.11 0.11 0.11 0.10 0.12 0.16 0.18 0.18 0.17 0.18 0.20 0.21 0.22 0.22 0.22 0.22 0.22 0.22 0.22 0.21 0.21 0.21 0.22 0.22
0.07 0.07 0.08 0.08 0.09 0.10 0.11 0.11 0.12 0.13 0.14 0.16 0.16 0.15 0.15 0.15 0.13 0.12 0.12 0.12 0.12 0.12 0.12 0.13 0.16 0.19 0.20 0.19 0.18 0.19 0.20 0.20 0.20 0.20 0.20 0.19 0.19 0.19 0.19 0.19 0.19 0.18 0.19 0.19
0.04 0.04 0.04 0.04 0.05 0.06 0.07 0.08 0.09 0.10 0.11 0.13 0.14 0.13 0.12 0.12 0.14 0.14 0.13 0.12 0.12 0.13 0.14 0.15 0.16 0.17 0.18 0.17 0.18 0.18 0.18 0.18 0.19 0.20 0.18 0.17 0.16 0.16 0.15 0.15 0.16 0.16 0.16 0.16
0.03 0.03 0.03 0.03 0.03 0.03 0.04 0.05 0.07 0.08 0.09 0.10 0.11 0.11 0.11 0.11 0.12 0.13 0.13 0.13 0.13 0.14 0.14 0.14 0.15 0.15 0.16 0.15 0.16 0.15 0.15 0.15 0.15 0.15 0.14 0.14 0.14 0.14 0.14 0.14 0.14 0.14 0.14 0.14
0.03 0.03 0.03 0.02 0.03 0.03 0.03 0.04 0.05 0.05 0.07 0.09 0.11 0.11 0.12 0.13 0.13 0.13 0.12 0.12 0.12 0.13 0.13 0.13 0.14 0.15 0.15 0.14 0.14 0.13 0.12 0.13 0.13 0.13 0.13 0.13 0.13 0.14 0.14 0.14 0.14 0.14 0.13 0.13